STARLINK-32822, 62868

Orbit data source: Space-Track

STARLINK-32822, 62868 is a payload satellite owned by SpaceX/Seattle (US) in LEO that was launched on Sat, 01 Feb 2025 UTC via an FALCON 9 launch vehicle from the Air Force Western Test Range (AFWTR). Payload-class satellites include a variety of spacecraft equipped with specific instruments for various scientific and technological missions. These include communications satellites like Starlink; space stations such as the ISS; scientific satellites like the Hubble; Earth observation satellites from companies like Planet Labs, Umbra, and HawkEye 360; GPS; miniature CubeSats for education and research; and military/defense satellites.

Loading next visibility...
Identifier
62868, 2025-022Q
Orbit
LEO
Country
Flag of USUS
Related business
Manufacturer
SpaceX/Seattle
Mission
Operational Commercial Communications
Bus & Motor
STARLINK V2M, Unknown motor
Mass
730 kg wet, ~700 kg dry
Launch date (UTC)
2025-02-01 (9 months ago)
Launch vehicle
FALCON 9
Launch site
Air Force Western Test Range (AFWTR)
Object type
Payload
Rocket body
Debris
Shape & HBR
Box + 2 Pan, 17.7 m
Radar Cross Section
33.884 m², Large (>1 m²)

Expand to show TLE details & history
Last TLE update: 1 day ago

TLE from 1 day ago
0 STARLINK-32822
1 62868U 25022Q   25304.45880965  .00029587  00000-0  10084-2 0  9996
2 62868  53.1606   9.9252 0001126  90.6670 269.4460 15.30157589 42111
Epoch: 2025-10-31T11:00Z
TLE epoch observation values (Epoch: 2025-10-31T11:00:41.153Z)
Latitude
-0.00002°
Longitude
164.75077°
Altitude
476.249 km
Speed
7.629 km/s
True Right ascension
00h 39m 42s
True Declination
0° 00' 00"
Sunlit
Object was in full shadow at epoch
Visualization orbit readout
Latitude
Unknown
Longitude
Unknown
Altitude
Unknown
Speed
Unknown
Apparent Right ascension
Unknown
Apparent Declination
Unknown
Sunlit
N/A
Visualization observer readout
Local Sidereal Time
13:29:48
Azimuth
Unknown
Elevation
Unknown
Doppler factor
Unknown
Orbital elements
Apogee altitude
476.37 km
Perigee altitude
474.826 km
Semi-major axis
6,853.735 km
Eccentricity
0.00011
Inclination
53.1606°
RAAN
9.9252°
Arg. of periapsis
90.667°
True anomaly
269.4331°
Mean anomaly
269.446°
Eccentric anomaly
269.43955°
Mean motion
3.82518 °/min
Orbital period
94.11 mins
BSTAR
0.0010084
Loading maneuver chart data...
Computing Atmospheric mass density...
Loading historical data...
Loading historical data...
Loading historical data...
Loading historical data...
Loading historical data...
Loading historical data...
Loading historical data...

Documentation

Showing up to 5 results
|